User: anonymous   Login
Location: Unspecified
(51.3762°N, 0.0000°E)
Time: 21:49:52
(UTC+00:00)
Language:

BEESAT 2 - Orbit

View from above orbital plane
View from above orbital plane
View from above satellite
View from above satellite

Ground track
Ground track

The orbit data is extracted from the following two-line orbital elements,

1 39136U 13015G   19200.89782685 +.00000277 +00000-0 +23969-4 0  9996
2 39136 064.8711 301.9849 0020756 299.2540 060.6510 15.16936350344510
Epoch (UTC): 19 July 2019 21:32:52
Eccentricity: 0.0020756
inclination: 64.8711°
perigee height: 501 km
apogee height: 529 km
right ascension of ascending node: 301.9849°
argument of perigee: 299.2540°
revolutions per day: 15.16936350
mean anomaly at epoch: 60.6510°
orbit number at epoch: 34451

The dashed part of the orbit path shows where the satellite is in the earth's shadow,  

DLR